Location: El Azufral
(10.3513°N, 67.1528°W)
Time: 08:46:55
(UTC+00:00)

Ariane H10 - Pass Details

Date: 13 June 2024
Orbit: 423 x 34536 km, 4.1° (Epoch: 19 July)

Event Time Altitude Azimuth Distance (km) Brightness Sun altitude
Rises 23:27:17 0° 266° (W) 7,159 9.1 -9.0°
Reaches altitude 10° 23:34:34 10° 259° (W) 3,821 7.4 -10.6°
Maximum altitude 23:41:03 34° 194° (SSW) 1,050 3.6 -12.0°
Enters shadow 23:42:56 18° 136° (SE) 1,260 3.6 -12.5°
